|
Cosmos 2297 - Orbit
|
Okie-Tex Star Party;
22:52:38
| Home | Info | Passes |
|
View from above orbital plane
|
View from above satellite
|
Ground track
|
The orbit data is extracted from the following two-line orbital elements,
1 23404U 94077A 13140.12713951 .00000267 00000-0 16715-3 0 4924
2 23404 071.0137 169.7487 0017177 252.9268 168.3630 14.13327968953674
| Epoch (UTC): | 20 May 2013 03:03:04 |
| Eccentricity: | 0.0017177 |
| inclination: | 71.0137° |
| perigee height: | 835 km |
| apogee height: | 860 km |
| right ascension of ascending node: | 169.7487° |
| argument of perigee: | 252.9268° |
| revolutions per day: | 14.13327968 |
| mean anomaly at epoch: | 168.3630° |
| orbit number at epoch: | 95367 |
The dashed part of the orbit path shows where the satellite is in the earth's shadow,
|
|